TimeEST,TemperatureF,Dew PointF,Humidity,Sea Level PressureIn,VisibilityMPH,Wind Direction,Wind SpeedMPH,Gust SpeedMPH,PrecipitationIn,Events,Conditions,WindDirDegrees,DateUTC
12:54 AM,35.1,26.1,70,30.34,10.0,Calm,Calm,-,N/A,,Clear,0,2012-12-14 05:54:00
1:54 AM,34.0,27.0,75,30.35,10.0,Calm,Calm,-,N/A,,Clear,0,2012-12-14 06:54:00
2:54 AM,30.9,25.0,79,30.34,10.0,Calm,Calm,-,N/A,,Clear,0,2012-12-14 07:54:00
3:54 AM,32.0,26.1,79,30.33,10.0,Calm,Calm,-,N/A,,Clear,0,2012-12-14 08:54:00
4:54 AM,32.0,26.1,79,30.32,10.0,Calm,Calm,-,N/A,,Clear,0,2012-12-14 09:54:00
5:15 AM,30.2,26.6,86,30.32,9.0,WSW,4.6,-,N/A,,Clear,250,2012-12-14 10:15:00
5:54 AM,30.9,28.0,89,30.32,8.0,SW,4.6,-,N/A,,Partly Cloudy,230,2012-12-14 10:54:00
6:54 AM,30.9,27.0,85,30.32,8.0,WSW,6.9,-,N/A,,Scattered Clouds,240,2012-12-14 11:54:00
7:54 AM,33.1,27.0,78,30.32,9.0,WSW,6.9,-,N/A,,Scattered Clouds,240,2012-12-14 12:54:00
8:54 AM,35.1,27.0,72,30.32,9.0,SW,5.8,-,N/A,,Partly Cloudy,220,2012-12-14 13:54:00
9:54 AM,39.9,28.9,65,30.32,9.0,SW,11.5,-,N/A,,Partly Cloudy,220,2012-12-14 14:54:00
10:09 AM,41.0,28.4,61,30.32,10.0,SW,9.2,-,N/A,,Partly Cloudy,230,2012-12-14 15:09:00
10:54 AM,43.0,27.0,53,30.30,10.0,SW,12.7,-,N/A,,Partly Cloudy,220,2012-12-14 15:54:00
11:54 AM,46.0,27.0,47,30.27,10.0,SW,13.8,-,N/A,,Partly Cloudy,220,2012-12-14 16:54:00
12:54 PM,48.0,27.0,44,30.23,10.0,SW,12.7,-,N/A,,Partly Cloudy,220,2012-12-14 17:54:00
1:54 PM,50.0,27.0,41,30.22,10.0,SW,11.5,-,N/A,,Partly Cloudy,220,2012-12-14 18:54:00
2:54 PM,51.1,27.0,39,30.21,10.0,SW,10.4,-,N/A,,Partly Cloudy,220,2012-12-14 19:54:00
3:54 PM,50.0,27.0,41,30.21,10.0,SW,8.1,-,N/A,,Scattered Clouds,230,2012-12-14 20:54:00
4:54 PM,46.0,28.0,50,30.21,10.0,WSW,4.6,-,N/A,,Scattered Clouds,250,2012-12-14 21:54:00
5:54 PM,45.0,30.0,56,30.22,10.0,WSW,4.6,-,N/A,,Scattered Clouds,250,2012-12-14 22:54:00
6:54 PM,44.1,30.0,58,30.24,10.0,SW,5.8,-,N/A,,Partly Cloudy,230,2012-12-14 23:54:00
7:54 PM,41.0,30.9,67,30.25,10.0,WSW,4.6,-,N/A,,Clear,240,2012-12-15 00:54:00
8:54 PM,37.9,30.0,73,30.26,10.0,Calm,Calm,-,N/A,,Clear,0,2012-12-15 01:54:00
9:54 PM,37.9,32.0,79,30.25,10.0,Calm,Calm,-,N/A,,Clear,0,2012-12-15 02:54:00
10:54 PM,37.0,28.9,73,30.26,10.0,Calm,Calm,-,N/A,,Partly Cloudy,0,2012-12-15 03:54:00
11:54 PM,37.0,32.0,82,30.26,10.0,Calm,Calm,-,N/A,,Mostly Cloudy,0,2012-12-15 04:54:00